[[{"header":{"parameterUnit":"m.s-1","parameterCategory":1,"la1":30.2991,"la2":30.254,"lo1":-89.0895,"lo2":-89.0444,"dy":0.0017,"dx":0.0017,"nx":28,"ny":28,"refTime":"2024-10-07T09:00:00:Z","depth":0,"parameterNumber":2,"parameterNumberName":"U-component_of_WINDS"},"data":[0,0,0,0,0,0,0,0,0,0,0,0,0,0,0,0,0,0,0,0,0,0,0,0,0,0,0,0,0,0,0,0,0,0,0,0,0,0,0,0,0,0,0,0,0,0,0,0,0,0,0,0,0,0,0,0,0,0,-1.3113,-1.3113,0,-1.3163,-1.3164,-1.3164,-1.3123,-1.3122,-1.312,-1.3118,-1.317,-1.3173,-1.3176,0,0,0,0,0,0,0,0,0,0,0,0,0,-1.2982,-1.2984,-1.3113,-1.3114,-1.3114,-1.3163,-1.3164,-1.3164,-1.3124,-1.3122,-1.3119,-1.3117,-1.3169,-1.3173,-1.3176,0,0,0,0,0,0,0,0,0,0,0,0,0,-1.3036,-1.2985,-1.3113,-1.31,-1.3099,-1.3163,-1.3164,-1.3164,-1.3124,-1.3121,-1.3119,-1.3116,-1.3168,-1.3172,-1.3177,-1.3256,0,0,-1.319,-1.3192,0,0,0,0,0,0,0,0,-1.3033,-1.3041,-1.3101,-1.3101,-1.31,-1.3134,-1.3136,-1.3195,-1.3125,-1.3115,-1.3118,-1.3115,-1.316,-1.3165,-1.318,-1.3258,-1.3261,-1.3191,-1.3193,-1.3195,-1.3197,0,0,0,0,0,0,0,-1.3029,-1.3038,-1.3133,-1.3102,-1.3101,-1.3091,-1.3096,-1.3147,-1.3151,-1.3115,-1.3112,-1.3119,-1.3159,-1.3176,-1.3181,-1.3261,-1.3191,-1.3195,-1.3197,-1.3199,-1.3407,-1.341,0,0,0,0,0,0,-1.3027,-1.3036,-1.3131,-1.3134,-1.3059,-1.3096,-1.3101,-1.3126,-1.3151,-1.3152,-1.3121,-1.3117,-1.317,-1.3176,-1.3183,-1.3278,-1.3195,-1.3199,-1.3202,-1.3404,-1.3408,-1.3411,0,0,0,0,0,0,-1.3024,-1.3036,-1.3129,-1.3084,-1.3095,-1.3101,-1.3129,-1.3128,-1.3145,-1.3155,-1.3155,-1.3137,-1.3168,-1.3177,-1.3238,-1.3279,-1.3201,-1.3206,-1.3401,-1.3405,-1.3409,-1.3469,0,0,0,0,0,0,-1.302,-1.3035,-1.3065,-1.3085,-1.3098,-1.3184,-1.3131,-1.3131,-1.3153,-1.3148,-1.317,-1.3172,-1.3166,-1.3232,-1.3243,-1.3284,-1.3209,-1.3397,-1.3403,-1.3408,-1.3463,-1.3475,-1.3484,0,0,0,0,0,-1.3016,-1.308,-1.3067,-1.3079,-1.3136,-1.3186,-1.3194,-1.3186,-1.3156,-1.3187,-1.3193,-1.3171,-1.3272,-1.3238,-1.325,-1.3294,-1.3395,-1.3401,-1.3407,-1.3459,-1.3472,-1.3484,0,0,0,0,0,0,-1.3066,-1.3083,-1.3068,-1.3141,-1.3163,-1.3179,-1.3218,-1.3201,-1.3232,-1.3226,-1.3215,-1.3221,-1.3286,-1.3295,-1.3257,-1.3372,-1.3329,-1.3338,-1.3363,-1.3377,-1.3387,-1.3384,-1.3213,0,0,0,0,0,-1.3085,-1.3124,-1.3137,-1.32,-1.3211,-1.3213,-1.3234,-1.3227,-1.3249,-1.3258,-1.3269,-1.3291,-1.3328,-1.3352,-1.3387,-1.3463,-1.3468,-1.3499,-1.351,-1.3518,-1.3527,-1.3569,-1.3583,-1.3432,-1.3432,-1.3432,0,0,-1.3126,-1.314,-1.3165,-1.321,-1.3226,-1.3267,-1.3221,-1.3267,-1.3297,-1.3265,-1.3324,-1.3332,-1.3356,-1.3426,-1.3457,-1.3436,-1.3569,-1.3526,-1.3533,-1.3537,-1.3577,-1.3591,-1.3604,-1.3436,-1.3435,-1.3435,0,0,-1.3221,-1.3235,-1.3289,-1.3306,-1.333,-1.3331,-1.3344,-1.3363,-1.3367,-1.3426,-1.3403,-1.3439,-1.3502,-1.352,-1.3538,-1.3639,-1.362,-1.365,-1.3706,-1.3747,-1.3759,-1.3769,-1.3806,-1.382,-1.3658,-1.3658,-1.3659,0,-1.3269,-1.333,-1.3319,-1.3367,-1.3388,-1.3359,-1.3414,-1.343,-1.3465,-1.348,-1.3455,-1.3534,-1.3548,-1.3622,-1.3647,-1.3661,-1.3676,-1.3649,-1.3758,-1.3768,-1.3778,-1.3813,-1.3827,-1.3662,-1.3662,-1.3661,-1.3661,0,-1.3388,-1.3431,-1.3471,-1.3505,-1.353,-1.3581,-1.3578,-1.3604,-1.3594,-1.3597,-1.3657,-1.3672,-1.371,-1.3726,-1.3716,-1.3799,-1.3785,-1.3759,-1.3716,-1.3796,-1.3829,-1.3842,-1.3667,-1.3666,-1.3665,-1.3664,0,0,-1.3518,-1.3544,-1.356,-1.3575,-1.3599,-1.3632,-1.3681,-1.3717,-1.374,-1.3764,-1.3806,-1.386,-1.3836,-1.3856,-1.3848,-1.3883,-1.3963,-1.3853,-1.3854,-1.3874,-1.4055,-1.4076,-1.4092,-1.395,-1.3952,-1.3954,-1.4054,0,-1.3616,-1.3702,-1.3693,-1.3775,-1.3815,-1.3788,-1.3831,-1.385,-1.3854,-1.3887,-1.3891,-1.393,-1.3895,-1.3907,-1.3941,-1.3946,-1.4,-1.3939,-1.3989,-1.3991,-1.3986,-1.4109,-1.4131,-1.4224,-1.4066,-1.4069,-1.407,0,-1.3742,-1.377,-1.3856,-1.3874,-1.389,-1.3929,-1.3962,-1.3994,-1.4015,-1.4015,-1.4037,-1.4022,-1.4071,-1.4026,-1.4094,-1.4053,-1.4072,-1.4078,-1.4081,-1.4087,-1.4037,-1.4119,-1.4253,-1.4268,-1.409,-1.4088,-1.4087,0,-1.383,-1.389,-1.3949,-1.3962,-1.3984,-1.4012,-1.4023,-1.4041,-1.4063,-1.4091,-1.4105,-1.4138,-1.4157,-1.4183,-1.4177,-1.4144,-1.4247,-1.4201,-1.4249,-1.4249,-1.4274,-1.4273,-1.4415,-1.4283,-1.4283,-1.4283,-1.4283,0,-1.3941,-1.3995,-1.3989,-1.4026,-1.4085,-1.4074,-1.4133,-1.414,-1.4156,-1.4194,-1.4171,-1.4207,-1.4197,-1.4232,-1.4227,-1.4285,-1.4293,-1.4295,-1.4293,-1.4298,-1.4298,-1.4312,-1.4306,-1.4287,-1.4286,-1.4285,-1.4285,0,-1.4051,-1.4048,-1.4112,-1.4127,-1.4132,-1.4175,-1.4188,-1.4222,-1.4223,-1.4271,-1.4281,-1.4283,-1.4323,-1.432,-1.4364,-1.4361,-1.4433,-1.4423,-1.4426,-1.4425,-1.4474,-1.447,-1.4631,-1.4652,-1.4506,-1.4507,-1.4508,0,-1.4123,-1.4164,-1.4183,-1.4207,-1.4219,-1.4257,-1.4279,-1.4269,-1.4293,-1.432,-1.4351,-1.4389,-1.4419,-1.4484,-1.4489,-1.4523,-1.4515,-1.4569,-1.452,-1.4523,-1.4517,-1.4516,-1.452,-1.4579,-1.4581,-1.4582,-1.4583,0,-1.4251,-1.4248,-1.4281,-1.4314,-1.4341,-1.4367,-1.439,-1.441,-1.4402,-1.443,-1.4471,-1.4494,-1.4539,-1.4577,-1.4609,-1.462,-1.4601,-1.4598,-1.4612,-1.4618,-1.4619,-1.462,-1.4454,-1.4595,-1.4594,-1.4593,-1.4593,-1.4592,-1.4346,-1.4381,-1.44,-1.4438,-1.4453,-1.4475,-1.4509,-1.4513,-1.4547,-1.4583,-1.4575,-1.4621,-1.464,-1.4681,-1.4694,-1.473,-1.471,-1.4729,-1.4734,-1.4739,-1.4746,-1.4611,-1.4735,-1.4735,-1.4734,-1.4734,-1.4734,0,-1.4474,-1.4485,-1.4519,-1.4552,-1.4582,-1.456,-1.4584,-1.461,-1.4651,-1.467,-1.47,-1.4746,-1.4783,-1.479,-1.4825,-1.4852,-1.4844,-1.4861,-1.486,-1.4863,-1.4761,-1.4746,-1.4867,-1.4867,-1.4867,-1.4867,-1.4867,-1.4867,-1.4545,-1.4604,-1.4602,-1.4669,-1.4678,-1.4723,-1.4739,-1.4759,-1.4774,-1.4827,-1.4857,-1.4862,-1.4876,-1.4911,-1.4944,-1.4945,-1.4959,-1.4981,-1.4979,-1.4883,-1.487,-1.4858,-1.4844,-1.4984,-1.4984,-1.5078,-1.5079,-1.508]},{"header":{"parameterUnit":"m.s-1","parameterCategory":1,"la1":30.2991,"la2":30.254,"lo1":-89.0895,"lo2":-89.0444,"dy":0.0017,"dx":0.0017,"nx":28,"ny":28,"refTime":"2024-10-07T09:00:00:Z","depth":0,"parameterNumber":3,"parameterNumberName":"V-component_of_WINDS"},"data":[0,0,0,0,0,0,0,0,0,0,0,0,0,0,0,0,0,0,0,0,0,0,0,0,0,0,0,0,0,0,0,0,0,0,0,0,0,0,0,0,0,0,0,0,0,0,0,0,0,0,0,0,0,0,0,0,0,0,-5.9586,-5.9587,0,-5.9651,-5.9652,-5.9652,-5.9551,-5.9548,-5.9544,-5.9541,-5.9603,-5.9607,-5.9612,0,0,0,0,0,0,0,0,0,0,0,0,0,-5.9369,-5.9373,-5.9586,-5.9587,-5.9587,-5.9651,-5.9652,-5.9653,-5.9552,-5.9548,-5.9544,-5.954,-5.9601,-5.9607,-5.9613,0,0,0,0,0,0,0,0,0,0,0,0,0,-5.9451,-5.9375,-5.9586,-5.9545,-5.9542,-5.9651,-5.9652,-5.9653,-5.9553,-5.9548,-5.9542,-5.9538,-5.9599,-5.9606,-5.9613,-5.9763,0,0,-5.9636,-5.9639,0,0,0,0,0,0,0,0,-5.9447,-5.9459,-5.955,-5.9548,-5.9545,-5.9588,-5.9597,-5.969,-5.9554,-5.9549,-5.9541,-5.9535,-5.9602,-5.9608,-5.9632,-5.9766,-5.9769,-5.9636,-5.9641,-5.9644,-5.9646,0,0,0,0,0,0,0,-5.9441,-5.9456,-5.9611,-5.9552,-5.9548,-5.9522,-5.9528,-5.9614,-5.9603,-5.9549,-5.9542,-5.9551,-5.9599,-5.9625,-5.9633,-5.977,-5.9636,-5.9643,-5.9647,-5.965,-6.0029,-6.0034,0,0,0,0,0,0,-5.9441,-5.9452,-5.9609,-5.9613,-5.9482,-5.953,-5.9536,-5.9579,-5.9602,-5.9601,-5.9555,-5.9546,-5.9615,-5.9624,-5.9634,-5.9811,-5.9644,-5.9651,-5.9655,-6.0023,-6.003,-6.0036,0,0,0,0,0,0,-5.9437,-5.9456,-5.9607,-5.9531,-5.9548,-5.9539,-5.9588,-5.9583,-5.9609,-5.9607,-5.9604,-5.9584,-5.9611,-5.9624,-5.9732,-5.9812,-5.9654,-5.9661,-6.0016,-6.0025,-6.0033,-6.0166,0,0,0,0,0,0,-5.9431,-5.9455,-5.9513,-5.9533,-5.9552,-5.9706,-5.9593,-5.9588,-5.9623,-5.9611,-5.9634,-5.9632,-5.9608,-5.9722,-5.9739,-5.9819,-5.9667,-6.0009,-6.002,-6.003,-6.0154,-6.0178,-6.0198,0,0,0,0,0,-5.9424,-5.9547,-5.9517,-5.9536,-5.9625,-5.971,-5.9721,-5.9692,-5.963,-5.9687,-5.9686,-5.9632,-5.98,-5.9734,-5.9753,-5.9836,-6.0004,-6.0017,-6.003,-6.0144,-6.0173,-6.0197,0,0,0,0,0,0,-5.9535,-5.9549,-5.9516,-5.9649,-5.968,-5.9693,-5.9765,-5.9724,-5.9771,-5.9758,-5.9718,-5.9724,-5.9841,-5.9848,-5.9774,-5.9981,-5.9891,-5.9909,-5.9972,-5.9999,-6.0021,-6.0016,-5.9673,0,0,0,0,0,-5.9576,-5.9646,-5.9653,-5.977,-5.9787,-5.9774,-5.981,-5.9785,-5.9814,-5.9826,-5.9832,-5.9861,-5.992,-5.996,-6.0014,-6.0154,-6.0157,-6.0221,-6.0243,-6.026,-6.0276,-6.035,-6.0378,-6.0078,-6.0078,-6.0078,0,0,-5.9659,-5.9676,-5.9722,-5.9793,-5.9814,-5.9885,-5.9785,-5.9865,-5.9917,-5.9837,-5.994,-5.9946,-5.9975,-6.01,-6.0155,-6.011,-6.0359,-6.0277,-6.0291,-6.0297,-6.0366,-6.0394,-6.042,-6.0087,-6.0085,-6.0084,0,0,-5.9849,-5.9869,-5.9969,-5.9992,-6.0025,-6.0015,-6.0039,-6.0059,-6.006,-6.0163,-6.0105,-6.0165,-6.0268,-6.0291,-6.0317,-6.0515,-6.0467,-6.0534,-6.0648,-6.072,-6.0744,-6.0765,-6.0835,-6.0861,-6.0549,-6.0549,-6.0549,0,-5.9948,-6.0056,-6.0024,-6.0109,-6.0142,-6.0074,-6.0174,-6.0197,-6.0246,-6.0269,-6.0218,-6.0346,-6.0361,-6.049,-6.0539,-6.0561,-6.0586,-6.0531,-6.0743,-6.0764,-6.0783,-6.0849,-6.0876,-6.0557,-6.0556,-6.0555,-6.0555,0,-6.0176,-6.0252,-6.0328,-6.0379,-6.042,-6.0512,-6.0492,-6.0537,-6.0509,-6.0504,-6.0609,-6.0624,-6.0681,-6.0709,-6.0682,-6.0835,-6.0806,-6.075,-6.0659,-6.082,-6.0882,-6.0907,-6.0568,-6.0566,-6.0563,-6.0561,0,0,-6.0438,-6.0471,-6.05,-6.0522,-6.0553,-6.061,-6.0698,-6.0754,-6.0794,-6.0829,-6.0901,-6.099,-6.0938,-6.0967,-6.0941,-6.1005,-6.1161,-6.0941,-6.0941,-6.0981,-6.133,-6.1372,-6.1402,-6.1129,-6.1134,-6.1137,-6.1327,0,-6.0627,-6.0782,-6.0756,-6.0905,-6.0973,-6.091,-6.0986,-6.1013,-6.101,-6.1066,-6.1062,-6.1126,-6.1054,-6.1071,-6.1131,-6.1129,-6.123,-6.1115,-6.1194,-6.1198,-6.119,-6.1435,-6.1479,-6.1658,-6.1351,-6.1355,-6.1358,0,-6.0868,-6.0915,-6.1072,-6.1092,-6.112,-6.119,-6.1239,-6.1294,-6.1322,-6.1316,-6.1349,-6.1311,-6.1396,-6.1304,-6.1421,-6.1344,-6.1374,-6.1378,-6.1384,-6.139,-6.1288,-6.1447,-6.1714,-6.1741,-6.1396,-6.1393,-6.139,0,-6.1044,-6.1145,-6.1252,-6.1273,-6.13,-6.135,-6.1363,-6.1386,-6.1422,-6.1465,-6.1487,-6.1539,-6.1567,-6.1607,-6.1583,-6.1519,-6.1704,-6.161,-6.17,-6.1701,-6.1742,-6.174,-6.2018,-6.1762,-6.1762,-6.1761,-6.1761,0,-6.1258,-6.1356,-6.1332,-6.1397,-6.1505,-6.1473,-6.158,-6.1584,-6.1606,-6.167,-6.1617,-6.1678,-6.1643,-6.1701,-6.1683,-6.1782,-6.1795,-6.1791,-6.1785,-6.1796,-6.1797,-6.1816,-6.1803,-6.1768,-6.1767,-6.1766,-6.1764,0,-6.1472,-6.146,-6.1572,-6.1589,-6.1595,-6.1674,-6.1687,-6.1747,-6.1741,-6.1822,-6.184,-6.1829,-6.1894,-6.1875,-6.1944,-6.1932,-6.2058,-6.2036,-6.205,-6.2044,-6.2135,-6.2127,-6.2435,-6.2474,-6.2193,-6.2196,-6.2198,0,-6.161,-6.1684,-6.1709,-6.175,-6.1767,-6.1833,-6.1869,-6.184,-6.188,-6.1918,-6.1973,-6.2034,-6.2081,-6.2188,-6.2185,-6.2238,-6.2217,-6.2321,-6.2225,-6.2233,-6.2219,-6.2215,-6.2222,-6.2341,-6.2344,-6.2347,-6.2349,0,-6.1855,-6.1846,-6.1902,-6.1956,-6.2002,-6.2043,-6.2078,-6.2114,-6.2087,-6.2134,-6.2201,-6.2238,-6.231,-6.237,-6.2419,-6.2429,-6.2385,-6.2379,-6.2403,-6.2415,-6.242,-6.2419,-6.2102,-6.2372,-6.237,-6.2368,-6.2367,-6.2366,-6.2035,-6.2099,-6.2127,-6.219,-6.2215,-6.2249,-6.2307,-6.2308,-6.2364,-6.2422,-6.2401,-6.2478,-6.2502,-6.2563,-6.258,-6.2638,-6.2598,-6.2633,-6.2641,-6.265,-6.2662,-6.2411,-6.2647,-6.2646,-6.2645,-6.2645,-6.2644,0,-6.2278,-6.2293,-6.2353,-6.2405,-6.2455,-6.241,-6.2447,-6.2491,-6.2561,-6.2588,-6.2637,-6.2713,-6.2772,-6.2774,-6.2828,-6.2874,-6.2855,-6.289,-6.2886,-6.2889,-6.2695,-6.2669,-6.2904,-6.2904,-6.2904,-6.2904,-6.2904,-6.2904,-6.241,-6.2515,-6.2509,-6.2624,-6.2637,-6.2714,-6.2739,-6.277,-6.2792,-6.2881,-6.293,-6.2932,-6.2949,-6.3004,-6.3055,-6.3054,-6.3076,-6.3119,-6.311,-6.2929,-6.2903,-6.2878,-6.2854,-6.3124,-6.3124,-6.3299,-6.3301,-6.3302]}]]